Location: Branche des Alpilles
(43.6087°N, 4.6976°E)
Time: 09:44:33
(UTC+00:00)

Sich 1 - Pass Details

Date: 30 November 2020
Orbit: 593 x 626 km, 82.5° (Epoch: 26 January)

Event Time Altitude Azimuth Distance (km) Brightness Sun altitude
Rises 16:47:54 0° 350° (N) 2,898 6.4 -7.6°
Reaches altitude 10° 16:50:08 10° 350° (N) 1,983 5.5 -8.0°
Maximum altitude 16:54:32 81° 264° (W) 622 3.2 -8.7°
Drops below altitude 10° 16:58:50 10° 177° (S) 1,947 5.9 -9.5°
Sets 17:01:01 0° 176° (S) 2,840 6.7 -9.8°
